Mason City, IA

3:39 AM CDT on April 27, 2018 (GMT -0500)
Mason City Municipal

Weather History for KMCW - March, 2013

Change the Weather History Date:

Sunday, March 17, 2013

  Actual Average Record
Temperature  
Mean Temperature 22 °F 33 °F  
Max Temperature 31 °F 43 °F 81 °F (2012)
Min Temperature 13 °F 24 °F -8 °F (1909)
Degree Days  
Heating Degree Days 43 32  
Month to date heating degree days 706 598  
Since 1 July heating degree days 6267 6449  
Cooling Degree Days 0 0  
Month to date cooling degree days 0 0  
Year to date cooling degree days 0 0  
Moisture  
Dew Point 15 °F    
Average Humidity 71    
Maximum Humidity 78    
Minimum Humidity 63    
Precipitation  
Precipitation T in 0.08 in 0.79 in (1965)
Month to date precipitation 2.99 1.02  
Year to date precipitation 4.66 2.84  
Snow  
Snow T in 0.20 in 4.20 in (1965)
Month to date snowfall 20.8 3.7  
Since 1 July snowfall 42.8 36.2  
Snow Depth 8.00 in    
Sea Level Pressure  
Sea Level Pressure 30.10 in    
Wind  
Wind Speed 15 mph (East)    
Max Wind Speed 22 mph    
Max Gust Speed 30 mph    
Visibility 10 miles    
Events      
T = Trace of Precipitation, MM = Missing Value Source: NWS Daily Summary

Daily Weather History Graph

Daily Weather History Graph

Search for Another Location

Airport or City:

Astronomy

Mar. 17, 2013 Rise Set
Actual Time 7:21 AM CDT 7:22 PM CDT
Civil Twilight 6:53 AM CDT 7:50 PM CDT
Nautical Twilight 6:19 AM CDT 8:23 PM CDT
Astronomical Twilight 5:46 AM CDT 8:57 PM CDT
Moon 10:25 AM CDT (3/17) 12:39 AM CDT (3/17)
Length of Visible Light 12h 57m
Length of Day
12h 01m
Waxing Crescent, 31% of the Moon is Illuminated
Mar 17
Waxing Crescent
Mar 19
First Quarter
Mar 27
Full
Apr 2
Last Quarter
Apr 10
New

Hourly Weather History & Observations

Time (CDT) Temp. Windchill Dew Point Humidity Pressure Visibility Wind Dir Wind Speed Gust Speed Precip Events Conditions
12:53 AM 18.0 °F 6.1 °F 10.9 °F 74% 30.25 in 10.0 mi North 10.4 mph - N/A   Clear
1:53 AM 17.1 °F 4.3 °F 10.0 °F 74% 30.25 in 10.0 mi North 11.5 mph - N/A   Clear
2:53 AM 16.0 °F 2.9 °F 9.0 °F 74% 30.25 in 10.0 mi North 11.5 mph - N/A   Clear
3:53 AM 15.1 °F 1.8 °F 9.0 °F 77% 30.22 in 10.0 mi NNE 11.5 mph - N/A   Clear
4:53 AM 14.0 °F 1.2 °F 7.0 °F 74% 30.21 in 10.0 mi NNE 10.4 mph - N/A   Clear
5:53 AM 12.9 °F -0.9 °F 7.0 °F 77% 30.20 in 10.0 mi NE 11.5 mph - N/A   Clear
6:53 AM 12.9 °F 0.7 °F 6.1 °F 74% 30.22 in 10.0 mi NE 9.2 mph - N/A   Clear
7:53 AM 12.9 °F -0.2 °F 5.0 °F 71% 30.23 in 10.0 mi ENE 10.4 mph - N/A   Clear
8:53 AM 15.1 °F 1.8 °F 6.1 °F 68% 30.22 in 10.0 mi East 11.5 mph - N/A   Clear
9:53 AM 17.1 °F 2.0 °F 9.0 °F 71% 30.22 in 10.0 mi ESE 16.1 mph - N/A   Clear
10:53 AM 19.9 °F 5.2 °F 12.0 °F 71% 30.19 in 10.0 mi ESE 17.3 mph 21.9 mph N/A   Clear
11:53 AM 23.0 °F 9.6 °F 14.0 °F 68% 30.17 in 10.0 mi SE 16.1 mph - N/A   Clear
12:53 PM 25.0 °F 11.7 °F 15.1 °F 66% 30.12 in 10.0 mi ESE 17.3 mph - N/A   Scattered Clouds
1:53 PM 27.0 °F 14.7 °F 17.1 °F 66% 30.09 in 10.0 mi SE 16.1 mph - N/A   Overcast
2:53 PM 28.0 °F 16.1 °F 18.0 °F 66% 30.04 in 10.0 mi SE 16.1 mph - N/A   Overcast
3:53 PM 30.0 °F 17.9 °F 19.9 °F 66% 30.00 in 10.0 mi SE 18.4 mph 24.2 mph N/A   Partly Cloudy
4:27 PM 30.2 °F 18.1 °F 21.2 °F 69% 29.96 in 10.0 mi SE 18.4 mph - N/A   Mostly Cloudy
4:53 PM 30.9 °F 20.7 °F 21.0 °F 67% 30.00 in 10.0 mi SE 13.8 mph 21.9 mph N/A   Mostly Cloudy
5:53 PM 30.0 °F 18.7 °F 21.9 °F 72% 29.97 in 10.0 mi ESE 16.1 mph - N/A   Mostly Cloudy
6:53 PM 30.9 °F 19.1 °F 23.0 °F 72% 29.95 in 10.0 mi SE 18.4 mph - N/A   Overcast
7:53 PM 30.0 °F 17.2 °F 21.9 °F 72% 29.95 in 10.0 mi ESE 20.7 mph 26.5 mph N/A   Overcast
8:53 PM 30.0 °F 18.7 °F 23.0 °F 75% 29.95 in 10.0 mi SE 16.1 mph - N/A   Overcast
9:53 PM 28.9 °F 16.9 °F 23.0 °F 78% 29.94 in 10.0 mi SE 17.3 mph - N/A   Overcast
10:53 PM 28.9 °F 17.7 °F 23.0 °F 78% 29.93 in 10.0 mi SE 15.0 mph - N/A   Overcast
11:53 PM 30.0 °F 18.7 °F 24.1 °F 79% 29.89 in 10.0 mi SE 16.1 mph - N/A   Overcast